TimeEDT,TemperatureF,Dew PointF,Humidity,Sea Level PressureIn,VisibilityMPH,Wind Direction,Wind SpeedMPH,Gust SpeedMPH,PrecipitationIn,Events,Conditions,WindDirDegrees,DateUTC
12:53 AM,46.0,37.9,73,30.17,10.0,Calm,Calm,-,N/A,,Clear,0,2013-03-16 04:53:00
1:53 AM,44.1,37.9,79,30.16,10.0,Calm,Calm,-,N/A,,Clear,0,2013-03-16 05:53:00
2:53 AM,42.1,36.0,79,30.14,10.0,Calm,Calm,-,N/A,,Clear,0,2013-03-16 06:53:00
3:53 AM,43.0,36.0,76,30.13,10.0,Calm,Calm,-,N/A,,Clear,0,2013-03-16 07:53:00
4:53 AM,41.0,36.0,82,30.11,10.0,Calm,Calm,-,N/A,,Clear,0,2013-03-16 08:53:00
5:53 AM,39.9,36.0,86,30.11,10.0,Calm,Calm,-,N/A,,Clear,0,2013-03-16 09:53:00
6:53 AM,39.0,36.0,89,30.12,10.0,Calm,Calm,-,N/A,,Clear,0,2013-03-16 10:53:00
7:53 AM,39.0,34.0,82,30.14,10.0,Calm,Calm,-,N/A,,Clear,0,2013-03-16 11:53:00
8:53 AM,46.9,41.0,80,30.14,10.0,Calm,Calm,-,N/A,,Clear,0,2013-03-16 12:53:00
9:53 AM,57.0,48.0,72,30.15,10.0,SSW,3.5,-,N/A,,Clear,210,2013-03-16 13:53:00
10:53 AM,70.0,53.1,55,30.15,10.0,WSW,12.7,17.3,N/A,,Clear,250,2013-03-16 14:53:00
11:53 AM,73.0,50.0,44,30.14,10.0,West,13.8,-,N/A,,Partly Cloudy,260,2013-03-16 15:53:00
12:53 PM,75.0,48.0,38,30.12,10.0,West,10.4,-,N/A,,Partly Cloudy,260,2013-03-16 16:53:00
1:53 PM,79.0,48.0,34,30.09,10.0,WSW,13.8,-,N/A,,Scattered Clouds,250,2013-03-16 17:53:00
2:53 PM,79.0,48.0,34,30.06,10.0,WSW,10.4,21.9,N/A,,Scattered Clouds,250,2013-03-16 18:53:00
3:53 PM,79.0,45.0,30,30.04,10.0,West,9.2,23.0,N/A,,Scattered Clouds,270,2013-03-16 19:53:00
4:53 PM,80.1,45.0,29,30.03,10.0,SW,12.7,24.2,N/A,,Scattered Clouds,230,2013-03-16 20:53:00
5:53 PM,78.1,45.0,31,30.02,10.0,SW,15.0,-,N/A,,Partly Cloudy,230,2013-03-16 21:53:00
6:53 PM,75.0,44.1,33,30.02,10.0,WSW,18.4,-,N/A,,Partly Cloudy,240,2013-03-16 22:53:00
7:53 PM,71.1,46.9,42,30.03,10.0,WSW,9.2,-,N/A,,Partly Cloudy,240,2013-03-16 23:53:00
8:53 PM,66.0,52.0,60,30.05,10.0,SSW,10.4,-,N/A,,Clear,210,2013-03-17 00:53:00
9:53 PM,63.0,51.1,65,30.08,10.0,SSW,5.8,-,N/A,,Clear,210,2013-03-17 01:53:00
10:53 PM,60.1,52.0,75,30.09,10.0,SSW,4.6,-,N/A,,Clear,210,2013-03-17 02:53:00
11:53 PM,57.0,52.0,83,30.09,10.0,South,3.5,-,N/A,,Clear,190,2013-03-17 03:53:00